Los Angeles, CA

8:35 PM PST on February 19, 2017 (GMT -0800)
Los Angeles Downtown

Weather History for KCQT - January, 2014

Change the Weather History Date:

Wednesday, January 22, 2014

  Actual Average Record
Temperature  
Mean Temperature 66 °F 58 °F  
Max Temperature 77 °F 68 °F 84 °F (1994)
Min Temperature 54 °F 48 °F 34 °F (1937)
Degree Days  
Heating Degree Days 0 7  
Month to date heating degree days 61 160  
Since 1 July heating degree days 341 525  
Cooling Degree Days 1 0  
Month to date cooling degree days 15 0  
Year to date cooling degree days 15 0  
Growing Degree Days 15 (Base 50)    
Moisture  
Dew Point 46 °F    
Average Humidity 57    
Maximum Humidity 93    
Minimum Humidity 20    
Precipitation  
Precipitation 0.00 in 0.09 in 3.69 in (1967)
Month to date precipitation 0.00 2.23  
Year to date precipitation 0.00 2.23  
Since 1 July precipitation 0.97  
Sea Level Pressure  
Sea Level Pressure 29.95 in    
Wind  
Wind Speed 1 mph (ESE)    
Max Wind Speed 7 mph    
Max Gust Speed 10 mph    
Visibility 7 miles    
Events      
T = Trace of Precipitation, MM = Missing Value Source: NWS Daily Summary

Daily Weather History Graph

Daily Weather History Graph

Search for Another Location

Airport or City:

Trip Planner

Search our weather history database for the weather conditions in past years. The results will help you decide how hot, cold, wet, or windy it might be!

Date:

Astronomy

Jan. 22, 2014 Rise Set
Actual Time 6:55 AM PST 5:13 PM PST
Civil Twilight 6:29 AM PST 5:40 PM PST
Nautical Twilight 5:58 AM PST 6:10 PM PST
Astronomical Twilight 5:28 AM PST 6:40 PM PST
Moon 11:30 PM PST (1/22) 10:18 AM PST (1/22)
Length of Visible Light 11h 11m
Length of Day
10h 17m
Waning Gibbous, 64% of the Moon is Illuminated
Jan 22
Waning Gibbous
Jan 23
Last Quarter
Jan 30
New
Feb 6
First Quarter
Feb 14
Full

Hourly Weather History & Observations

Time (PST) Temp. Dew Point Humidity Pressure Visibility Wind Dir Wind Speed Gust Speed Precip Events Conditions
12:47 AM 62.1 °F 27.0 °F 26% 30.04 in 10.0 mi Calm Calm - N/A   Clear
1:47 AM 64.0 °F 23.0 °F 21% 30.02 in 10.0 mi Calm Calm - N/A   Clear
2:47 AM 61.0 °F 28.0 °F 29% 30.02 in 10.0 mi Calm Calm - N/A   Clear
3:47 AM 61.0 °F 37.9 °F 42% 30.01 in 10.0 mi East 4.6 mph - N/A   Clear
4:47 AM 59.0 °F 46.9 °F 64% 30.00 in 10.0 mi Calm Calm - N/A   Clear
5:47 AM 57.9 °F 50.0 °F 75% 29.99 in 9.0 mi Calm Calm - N/A   Clear
6:47 AM 55.9 °F 48.0 °F 75% 30.00 in 9.0 mi Calm Calm - N/A   Clear
7:47 AM 55.0 °F 48.0 °F 77% 30.01 in 7.0 mi Calm Calm - N/A   Clear
8:47 AM 63.0 °F 44.1 °F 50% 30.01 in 8.0 mi Calm Calm - N/A   Clear
9:47 AM 68.0 °F 42.1 °F 39% 30.01 in 8.0 mi Calm Calm - N/A   Clear
10:47 AM 72.0 °F 42.1 °F 34% 29.99 in 7.0 mi Calm Calm - N/A   Clear
11:47 AM 73.9 °F 39.9 °F 29% 29.95 in 8.0 mi Calm Calm - N/A   Clear
12:47 PM 75.0 °F 37.0 °F 25% 29.91 in 8.0 mi Calm Calm - N/A   Clear
1:47 PM 75.9 °F 37.0 °F 24% 29.88 in 9.0 mi Calm Calm - N/A   Clear
2:47 PM 73.0 °F 50.0 °F 44% 29.88 in 9.0 mi Calm Calm - N/A   Clear
3:47 PM 72.0 °F 51.1 °F 48% 29.88 in 10.0 mi Calm Calm - N/A   Clear
4:47 PM 66.0 °F 48.9 °F 54% 29.89 in 8.0 mi Calm Calm - N/A   Clear
5:47 PM 64.0 °F 48.0 °F 56% 29.89 in 8.0 mi West 3.5 mph - N/A   Clear
6:47 PM 61.0 °F 51.1 °F 70% 29.90 in 10.0 mi Calm Calm - N/A   Clear
7:42 PM 55.4 °F 51.8 °F 88% 29.93 in 6.0 mi Calm Calm - N/A   Partly Cloudy
7:47 PM 55.0 °F 52.0 °F 89% 29.93 in 5.0 mi Calm Calm - N/A   Scattered Clouds
7:51 PM 55.4 °F 51.8 °F 88% 29.93 in 4.0 mi Calm Calm - N/A   Mostly Cloudy
8:32 PM 55.4 °F 53.6 °F 94% 29.92 in 2.5 mi Calm Calm - N/A   Overcast
8:47 PM 55.9 °F 53.1 °F 90% 29.93 in 3.0 mi Calm Calm - N/A   Overcast
9:03 PM 55.4 °F 53.6 °F 94% 29.93 in 3.0 mi Calm Calm - N/A   Overcast
9:47 PM 57.0 °F 53.1 °F 87% 29.93 in 2.5 mi Calm Calm - N/A   Overcast
9:57 PM 57.2 °F 53.6 °F 88% 29.93 in 3.0 mi SSE 3.5 mph - N/A   Overcast
10:47 PM 57.0 °F 53.1 °F 87% 29.93 in 3.0 mi ENE 3.5 mph - N/A   Overcast
11:03 PM 55.4 °F 51.8 °F 88% 29.94 in 2.5 mi ESE 3.5 mph - N/A   Overcast
11:47 PM 55.0 °F 52.0 °F 89% 29.94 in 2.0 mi Calm Calm - N/A   Overcast